COSMOS 2584 (704K)

Last updated on Tue Dec 09 2025 00:03:23 GMT+0000 (Coordinated Universal Time)

1 63130U 25042A 25342.15242105 -.00000012 00000+0 00000+0 0 9994 2 63130 64.9737 79.3022 0007602 215.9611 144.0025 2.13102925 5976
UTC large
Height (km)
Speed (km/s)
/
Latitude / Longitude
Inclination (degrees)
Orbital Period (minutes)
Azimuth
Elevation
Range (km)
Doppler Factor

Next 0 passes for location: London (51.5072 / 0.1276)

Sorry there are no passes over London.